This demonstration page uses our WeatherBlox Daily Observations layout. Learn more.

Left ArrowRight Arrow

Hourly Observations for December 12, 2016

Temp ( °F °C ) Dew Point ( °F °C ) Humidity (%) Winds ( mph kmh ) Pressure ( in mb ) Visibility ( mi km ) Precip ( " mm )
12:53 am 00:53 Cloudy with Light Snow -1 -18.3 -7 -21.7 75 75 W 10 17 30.19 1022 7 11 0.00 0.03
1:23 am 01:23 Cloudy with Light Snow -1 -18.3 -6 -21.1 79 79 W 10 17 30.33 1027 2 3 0.00 0.03
1:39 am 01:39 Cloudy with Light Snow -1 -18.3 -6 -21.1 79 79 WSW 9 15 30.33 1027 2 3 0.01 0.25
1:50 am 01:50 Cloudy with Light Snow 0 -18 -6 -21 78 78 WSW 9 15 30.33 1027 2 2 0.00 0.00
1:53 am 01:53 Cloudy with Light Snow -1 -18.3 -5 -20.6 82 82 WSW 9 15 30.20 1023 2 3 0.01 0.25
2:03 am 02:03 Cloudy with Light Snow 0 -18 -6 -21 78 78 WSW 9 15 30.33 1027 3 4 0.00 0.00
2:15 am 02:15 Cloudy with Light Snow -1 -18.3 -5 -20.6 82 82 WSW 10 17 30.33 1027 2 3 0.00 0.03
2:43 am 02:43 Cloudy with Light Snow -1 -18.3 -5 -20.6 82 82 SW 10 17 30.36 1028 2 3 0.01 0.25
2:50 am 02:50 Cloudy with Light Snow 0 -18 -6 -21 78 78 SW 10 17 30.36 1028 2 3 0.00 0.00
2:53 am 02:53 Cloudy with Light Snow -1 -18.3 -5 -20.6 82 82 SW 12 19 30.22 1023 2 3 0.01 0.25
3:36 am 03:36 Cloudy with Light Snow 0 -18 -4 -20 84 84 SW 13 20 30.36 1028 2 3 0.00 0.00
3:44 am 03:44 Cloudy with Light Snow 0 -18 -4 -20 84 84 SW 13 20 30.36 1028 2 3 0.00 0.00
3:53 am 03:53 Cloudy with Light Snow 0 -17.8 -4 -20 83 83 SW 14 22 30.21 1023 3 4 0.00 0.03
4:15 am 04:15 Cloudy with Light Snow 0 -17.8 -4 -20 83 83 SW 13 20 30.33 1027 2 2 0.01 0.25
4:32 am 04:32 Cloudy with Light Snow 0 -18 -4 -20 84 84 SW 14 22 30.33 1027 2 3 0.00 0.00
4:45 am 04:45 Cloudy with Light Snow 0 -17.8 -4 -20 83 83 SW 13 20 30.36 1028 4 6 0.01 0.25
4:53 am 04:53 Cloudy 0 -17.8 -5 -20.6 79 79 SW 13 20 30.21 1023 7 11 0.01 0.25
5:53 am 05:53 Cloudy 1 -17.2 -4 -20 79 79 SW 15 24 30.22 1023 10 16 0.00 0.00
6:53 am 06:53 Cloudy 2 -16.7 -3 -19.4 80 80 SW 21 33 30.23 1024 8 13 0.00 0.00
7:53 am 07:53 Cloudy 2 -16.7 -2 -18.9 83 83 SW 22 35 30.24 1024 10 16 0.00 0.00
8:53 am 08:53 Cloudy 3 -16.1 -2 -18.9 79 79 SW 20 31 30.25 1025 10 16 0.00 0.00
9:53 am 09:53 Sunny 4 -15.6 -1 -18.3 80 80 WSW 17 28 30.27 1025 10 16 0.00 0.00
10:53 am 10:53 Sunny 7 -13.9 0 -17.8 73 73 WSW 16 26 30.28 1025 10 16 0.00 0.00
11:53 am 11:53 Sunny 10 -12.2 -4 -20 53 53 W 14 22 30.27 1025 10 16 0.00 0.00
12:53 pm 12:53 Mostly Cloudy 8 -13.3 -2 -18.9 63 63 WSW 13 20 30.26 1025 10 16 0.00 0.00
1:53 pm 13:53 Cloudy 10 -12.2 0 -17.8 63 63 WSW 15 24 30.26 1025 10 16 0.00 0.00
2:53 pm 14:53 Sunny 8 -13.3 -1 -18.3 66 66 WSW 14 22 30.26 1025 10 16 0.00 0.00
3:53 pm 15:53 Cloudy 9 -12.8 2 -16.7 73 73 WSW 18 30 30.26 1025 10 16 0.00 0.00
4:53 pm 16:53 Cloudy 8 -13.3 2 -16.7 76 76 SW 17 28 30.27 1025 10 16 0.00 0.00
5:53 pm 17:53 Clear 5 -15 -1 -18.3 76 76 SW 16 26 30.27 1025 10 16 0.00 0.00
6:53 pm 18:53 Clear 2 -16.7 -4 -20 76 76 SW 15 24 30.28 1025 10 16 0.00 0.00
7:53 pm 19:53 Clear 0 -17.8 -5 -20.6 79 79 SW 16 26 30.29 1026 10 16 0.00 0.00
8:53 pm 20:53 Clear -2 -18.9 -6 -21.1 83 83 SW 18 30 30.29 1026 10 16 0.00 0.00
9:53 pm 21:53 Mostly Cloudy 1 -17.2 -4 -20 79 79 SW 17 28 30.29 1026 10 16 0.00 0.00
10:53 pm 22:53 Clear 1 -17.2 -3 -19.4 83 83 SW 17 28 30.29 1026 10 16 0.00 0.00
11:53 pm 23:53 Clear 1 -17.2 -4 -20 79 79 SW 22 35 30.28 1025 10 16 0.00 0.00

Powered by AerisWeather